SAS49J EDDH-EKCH

Flight info

Callsign SAS49J
Flight time 0h 31m
Altitude 23000
Route LUGEG3C/05 LUGEG P605 GESKA/N0380F220 Z711 MONAK
Aircraft A320/M-SDE3FGHIRWY/LB1

Departure

Time 2026-05-07 12:32
Airport Hamburg Helmut Schmidt Airport (EDDH)

Arrival

Time 2026-05-07 13:04
Airport Copenhagen Kastrup Airport (EKCH)
Time Latitude Longitude Altitude Speed Heading
2026-05-07 11:57 53.63283 10.00376 46 ft 0 kts 85°
2026-05-07 12:18 53.63282 10.00353 46 ft 2 kts 85°
2026-05-07 12:19 53.63281 10.00324 46 ft 2 kts 85°
2026-05-07 12:19 53.63280 10.00295 46 ft 2 kts 85°
2026-05-07 12:19 53.63278 10.00267 46 ft 2 kts 85°
2026-05-07 12:19 53.63277 10.00239 46 ft 2 kts 87°
2026-05-07 12:20 53.63279 10.00212 46 ft 2 kts 104°
2026-05-07 12:20 53.63285 10.00187 40 ft 2 kts 135°
2026-05-07 12:20 53.63298 10.00171 41 ft 2 kts 171°
2026-05-07 12:20 53.63304 10.00170 41 ft 0 kts 176°
2026-05-07 12:22 53.63298 10.00171 41 ft 3 kts 176°
2026-05-07 12:22 53.63254 10.00176 46 ft 8 kts 176°
2026-05-07 12:23 53.63189 10.00184 45 ft 11 kts 176°
2026-05-07 12:23 53.63106 10.00193 45 ft 13 kts 177°
2026-05-07 12:23 53.63028 10.00139 45 ft 13 kts 211°
2026-05-07 12:23 53.62952 10.00057 46 ft 11 kts 214°
2026-05-07 12:24 53.62879 10.00043 43 ft 5 kts 176°
2026-05-07 12:24 53.62855 10.00024 46 ft 8 kts 216°
2026-05-07 12:24 53.62805 9.99961 45 ft 10 kts 210°
2026-05-07 12:24 53.62743 9.99905 48 ft 11 kts 208°
2026-05-07 12:25 53.62667 9.99833 47 ft 14 kts 215°
2026-05-07 12:25 53.62628 9.99668 46 ft 17 kts 259°
2026-05-07 12:25 53.62604 9.99456 43 ft 20 kts 259°
2026-05-07 12:25 53.62576 9.99207 43 ft 23 kts 259°
2026-05-07 12:26 53.62545 9.98931 44 ft 26 kts 258°
2026-05-07 12:26 53.62512 9.98627 43 ft 23 kts 261°
2026-05-07 12:26 53.62480 9.98368 42 ft 23 kts 258°
2026-05-07 12:26 53.62444 9.98129 40 ft 21 kts 242°
2026-05-07 12:27 53.62347 9.97921 41 ft 24 kts 230°
2026-05-07 12:27 53.62237 9.97700 41 ft 22 kts 230°
2026-05-07 12:27 53.62178 9.97523 40 ft 16 kts 270°
2026-05-07 12:27 53.62207 9.97414 41 ft 2 kts 314°
2026-05-07 12:28 53.62209 9.97411 41 ft 0 kts 316°
2026-05-07 12:30 53.62223 9.97391 41 ft 7 kts 321°
2026-05-07 12:30 53.62267 9.97351 42 ft 8 kts 332°
2026-05-07 12:30 53.62314 9.97359 43 ft 8 kts 48°
2026-05-07 12:31 53.62326 9.97382 41 ft 0 kts 50°
2026-05-07 12:31 53.62363 9.97458 42 ft 37 kts 51°
2026-05-07 12:31 53.62685 9.98110 44 ft 105 kts 50°
2026-05-07 12:32 53.63277 9.99316 66 ft 154 kts 50°
2026-05-07 12:32 53.63982 10.00731 624 ft 160 kts 50°
2026-05-07 12:32 53.64708 10.02127 1437 ft 164 kts 50°
2026-05-07 12:32 53.65485 10.03745 1719 ft 193 kts 52°
2026-05-07 12:33 53.67237 10.07469 3267 ft 210 kts 53°
2026-05-07 12:33 53.68137 10.09395 4271 ft 208 kts 53°
2026-05-07 12:33 53.69038 10.11326 5180 ft 210 kts 53°
2026-05-07 12:34 53.69944 10.13275 6090 ft 212 kts 53°
2026-05-07 12:34 53.70863 10.15245 6920 ft 215 kts 53°
2026-05-07 12:34 53.71806 10.17270 7573 ft 228 kts 53°
2026-05-07 12:34 53.72821 10.19505 7992 ft 252 kts 53°
2026-05-07 12:35 53.73922 10.21948 8594 ft 268 kts 53°
2026-05-07 12:35 53.75067 10.24488 9393 ft 275 kts 53°
2026-05-07 12:35 53.76243 10.27094 10182 ft 283 kts 53°
2026-05-07 12:35 53.77488 10.29848 10515 ft 306 kts 53°
2026-05-07 12:36 53.78828 10.32816 10839 ft 327 kts 52°
2026-05-07 12:36 53.80225 10.35904 11472 ft 335 kts 52°
2026-05-07 12:36 53.81653 10.39064 12180 ft 340 kts 52°
2026-05-07 12:36 53.83097 10.42267 12907 ft 345 kts 52°
2026-05-07 12:37 53.84564 10.45524 13647 ft 350 kts 52°
2026-05-07 12:37 53.86050 10.48828 14307 ft 355 kts 52°
2026-05-07 12:37 53.87554 10.52176 14949 ft 359 kts 52°
2026-05-07 12:37 53.89072 10.55562 15607 ft 363 kts 52°
2026-05-07 12:38 53.90605 10.58998 16229 ft 368 kts 52°
2026-05-07 12:38 53.92154 10.62475 16865 ft 371 kts 52°
2026-05-07 12:38 53.93210 10.64841 17273 ft 375 kts 52°
2026-05-07 12:38 53.94868 10.68216 17866 ft 379 kts 46°
2026-05-07 12:39 53.96688 10.71494 18495 ft 383 kts 46°
2026-05-07 12:39 53.98526 10.74817 19030 ft 389 kts 45°
2026-05-07 12:39 54.00379 10.78183 19660 ft 392 kts 46°
2026-05-07 12:39 54.02275 10.81642 20242 ft 396 kts 46°
2026-05-07 12:40 54.04135 10.85044 20855 ft 399 kts 46°
2026-05-07 12:40 54.06032 10.88520 21411 ft 404 kts 46°
2026-05-07 12:40 54.07954 10.92047 21985 ft 407 kts 46°
2026-05-07 12:40 54.09884 10.95591 22559 ft 411 kts 46°
2026-05-07 12:41 54.11838 10.99180 23000 ft 415 kts 46°
2026-05-07 12:41 54.13797 11.02787 23095 ft 416 kts 46°
2026-05-07 12:41 54.15761 11.06427 23110 ft 417 kts 47°
2026-05-07 12:41 54.17717 11.10068 23101 ft 417 kts 47°
2026-05-07 12:42 54.19679 11.13719 23113 ft 417 kts 47°
2026-05-07 12:42 54.21639 11.17371 23112 ft 417 kts 47°
2026-05-07 12:42 54.23598 11.21026 23102 ft 417 kts 47°
2026-05-07 12:42 54.25556 11.24687 23107 ft 417 kts 47°
2026-05-07 12:43 54.27509 11.28347 23115 ft 417 kts 47°
2026-05-07 12:43 54.29465 11.32020 23108 ft 417 kts 47°
2026-05-07 12:43 54.31419 11.35694 23107 ft 417 kts 47°
2026-05-07 12:43 54.33366 11.39369 23116 ft 417 kts 47°
2026-05-07 12:44 54.35319 11.43059 23107 ft 417 kts 47°
2026-05-07 12:44 54.37269 11.46745 23116 ft 417 kts 47°
2026-05-07 12:44 54.39220 11.50431 23111 ft 417 kts 47°
2026-05-07 12:44 54.41172 11.54115 23121 ft 417 kts 47°
2026-05-07 12:45 54.43125 11.57805 23125 ft 417 kts 47°
2026-05-07 12:45 54.45077 11.61495 23122 ft 417 kts 47°
2026-05-07 12:45 54.47028 11.65190 23125 ft 417 kts 47°
2026-05-07 12:45 54.48975 11.68884 23130 ft 417 kts 47°
2026-05-07 12:46 54.50919 11.72576 23133 ft 417 kts 47°
2026-05-07 12:46 54.52864 11.76273 23125 ft 416 kts 47°
2026-05-07 12:46 54.54807 11.79971 23130 ft 416 kts 47°
2026-05-07 12:46 54.56748 11.83670 23128 ft 416 kts 47°
2026-05-07 12:47 54.58690 11.87377 23120 ft 416 kts 47°
2026-05-07 12:47 54.60630 11.91072 23121 ft 415 kts 46°
2026-05-07 12:47 54.62777 11.94383 23120 ft 414 kts 35°
2026-05-07 12:47 54.65164 11.97160 23119 ft 414 kts 32°
2026-05-07 12:48 54.67567 11.99917 23118 ft 414 kts 32°
2026-05-07 12:48 54.69961 12.02684 23123 ft 414 kts 32°
2026-05-07 12:48 54.72358 12.05466 23119 ft 414 kts 32°
2026-05-07 12:48 54.74714 12.08204 23059 ft 402 kts 32°
2026-05-07 12:49 54.77014 12.10877 22720 ft 395 kts 32°
2026-05-07 12:49 54.79288 12.13523 22299 ft 391 kts 32°
2026-05-07 12:49 54.81538 12.16143 21849 ft 388 kts 32°
2026-05-07 12:49 54.83766 12.18739 21398 ft 384 kts 32°
2026-05-07 12:50 54.85976 12.21318 20861 ft 380 kts 32°
2026-05-07 12:50 54.88149 12.23859 20127 ft 374 kts 33°
2026-05-07 12:50 54.90299 12.26376 19509 ft 371 kts 33°
2026-05-07 12:50 54.92430 12.28871 18907 ft 368 kts 32°
2026-05-07 12:51 54.94540 12.31347 18302 ft 364 kts 33°
2026-05-07 12:51 54.96623 12.33790 17621 ft 362 kts 33°
2026-05-07 12:51 54.98725 12.36247 16952 ft 359 kts 33°
2026-05-07 12:51 55.00776 12.38648 16302 ft 352 kts 33°
2026-05-07 12:52 55.02802 12.41013 15661 ft 348 kts 33°
2026-05-07 12:52 55.04801 12.43343 15031 ft 344 kts 33°
2026-05-07 12:52 55.06780 12.45648 14419 ft 340 kts 33°
2026-05-07 12:52 55.08745 12.47942 13809 ft 341 kts 33°
2026-05-07 12:53 55.10699 12.50230 13132 ft 334 kts 33°
2026-05-07 12:53 55.12610 12.52473 12475 ft 329 kts 33°
2026-05-07 12:53 55.14487 12.54681 11830 ft 320 kts 33°
2026-05-07 12:53 55.16310 12.56824 11201 ft 311 kts 33°
2026-05-07 12:54 55.18084 12.58907 10572 ft 304 kts 33°
2026-05-07 12:54 55.19823 12.60948 9948 ft 297 kts 33°
2026-05-07 12:54 55.21649 12.62392 9288 ft 291 kts 13°
2026-05-07 12:54 55.23636 12.62581 8665 ft 284 kts 352°
2026-05-07 12:55 55.25509 12.61514 8109 ft 277 kts 331°
2026-05-07 12:55 55.27031 12.59572 7577 ft 272 kts 322°
2026-05-07 12:55 55.28492 12.57507 6995 ft 269 kts 322°
2026-05-07 12:55 55.29943 12.55460 6364 ft 267 kts 322°
2026-05-07 12:56 55.31382 12.53429 5701 ft 265 kts 322°
2026-05-07 12:56 55.32815 12.51409 5049 ft 263 kts 322°
2026-05-07 12:56 55.34236 12.49408 4392 ft 261 kts 322°
2026-05-07 12:56 55.35644 12.47423 3822 ft 257 kts 322°
2026-05-07 12:57 55.37009 12.45488 3675 ft 247 kts 322°
2026-05-07 12:57 55.38318 12.43623 3544 ft 238 kts 322°
2026-05-07 12:57 55.39577 12.41834 3416 ft 228 kts 322°
2026-05-07 12:57 55.40786 12.40120 3288 ft 218 kts 322°
2026-05-07 12:58 55.41947 12.38479 3159 ft 210 kts 323°
2026-05-07 12:58 55.43217 12.37469 3082 ft 194 kts 354°
2026-05-07 12:58 55.44458 12.37843 3002 ft 173 kts 27°
2026-05-07 12:58 55.45343 12.39047 2991 ft 150 kts 39°
2026-05-07 12:59 55.46136 12.40255 3015 ft 156 kts 39°
2026-05-07 12:59 55.46968 12.41525 3007 ft 159 kts 39°
2026-05-07 12:59 55.47810 12.42812 2960 ft 161 kts 39°
2026-05-07 12:59 55.48655 12.44107 2813 ft 161 kts 39°
2026-05-07 13:00 55.49495 12.45395 2598 ft 160 kts 39°
2026-05-07 13:00 55.50333 12.46679 2391 ft 159 kts 39°
2026-05-07 13:00 55.51169 12.47961 2174 ft 159 kts 39°
2026-05-07 13:00 55.51961 12.49179 1953 ft 143 kts 40°
2026-05-07 13:01 55.52690 12.50299 1773 ft 137 kts 39°
2026-05-07 13:01 55.53401 12.51391 1587 ft 134 kts 40°
2026-05-07 13:01 55.54103 12.52470 1405 ft 134 kts 40°
2026-05-07 13:01 55.54802 12.53545 1225 ft 133 kts 40°
2026-05-07 13:02 55.55502 12.54616 1040 ft 133 kts 40°
2026-05-07 13:02 55.56194 12.55699 841 ft 133 kts 40°
2026-05-07 13:02 55.56889 12.56770 666 ft 133 kts 39°
2026-05-07 13:02 55.57588 12.57834 481 ft 133 kts 39°
2026-05-07 13:03 55.58279 12.58914 314 ft 132 kts 39°
2026-05-07 13:03 55.58971 12.59973 135 ft 131 kts 39°
2026-05-07 13:03 55.59650 12.61016 28 ft 121 kts 39°
2026-05-07 13:03 55.60186 12.61826 19 ft 78 kts 41°
2026-05-07 13:04 55.60466 12.62263 19 ft 36 kts 36°
2026-05-07 13:04 55.60621 12.62344 19 ft 9 kts 10°
2026-05-07 13:04 55.60636 12.62349 19 ft 4 kts 10°
2026-05-07 13:04 55.60684 12.62364 18 ft 10 kts 10°
2026-05-07 13:05 55.60768 12.62397 17 ft 14 kts 19°
2026-05-07 13:05 55.60860 12.62511 17 ft 18 kts 41°
2026-05-07 13:05 55.60962 12.62670 19 ft 21 kts 41°
2026-05-07 13:05 55.61082 12.62855 17 ft 24 kts 41°
2026-05-07 13:06 55.61220 12.63058 17 ft 27 kts 37°
2026-05-07 13:06 55.61355 12.63300 17 ft 29 kts 43°
2026-05-07 13:06 55.61501 12.63508 17 ft 21 kts 41°
2026-05-07 13:06 55.61603 12.63662 17 ft 19 kts 38°
2026-05-07 13:07 55.61709 12.63823 17 ft 21 kts 39°
2026-05-07 13:07 55.61829 12.64011 17 ft 25 kts 43°
2026-05-07 13:07 55.61972 12.64155 17 ft 24 kts 27°
2026-05-07 13:07 55.62123 12.64283 18 ft 20 kts 27°
2026-05-07 13:08 55.62156 12.64311 16 ft 0 kts 25°
2026-05-07 13:08 55.62165 12.64320 16 ft 4 kts 25°
2026-05-07 13:08 55.62206 12.64354 15 ft 9 kts 25°
2026-05-07 13:08 55.62279 12.64398 16 ft 13 kts 15°
2026-05-07 13:09 55.62373 12.64443 17 ft 16 kts 15°
2026-05-07 13:09 55.62471 12.64484 17 ft 9 kts
2026-05-07 13:09 55.62523 12.64401 19 ft 12 kts 303°
2026-05-07 13:09 55.62575 12.64271 17 ft 13 kts 324°
2026-05-07 13:10 55.62668 12.64317 17 ft 14 kts 22°
2026-05-07 13:10 55.62696 12.64337 19 ft 3 kts 22°
2026-05-07 13:10 55.62737 12.64369 17 ft 5 kts 25°
2026-05-07 13:10 55.62760 12.64409 17 ft 7 kts 85°
2026-05-07 13:11 55.62754 12.64452 17 ft 4 kts 102°
2026-05-07 13:11 55.62752 12.64475 17 ft 0 kts 101°